Tracking 23726 objects as of 22-Sep-2021
HD Live streaming from Space Station
objects crossing your sky now

STARLINK-1891

Track STARLINK-1891 now!
10-day predictions
STARLINK-1891 is classified as:


NORAD ID: 47174
Int'l Code: 2020-088BE
Perigee: 553.2 km
Apogee: 555.5 km
Inclination: 53.1 °
Period: 95.6 minutes
Semi major axis: 6925 km
RCS: Unknown
Launch date: November 25, 2020
Source: United States (US)
Launch site: AIR FORCE EASTERN TEST RANGE (AFETR)
aabbcc
Your satellite tracking list
Your tracking list is empty




NASA's NSSDC Master Catalog

Two Line Element Set (TLE):
1 47174U 20088BE  21265.50734413  .00000089  00000-0  24907-4 0  9997
2 47174  53.0558  55.3073 0001638  95.4072 264.7104 15.06394300 46284
Source of the keplerian elements: AFSPC